[[{"header":{"parameterUnit":"m.s-1","parameterCategory":1,"la1":30.2991,"la2":30.254,"lo1":-89.0895,"lo2":-89.0444,"dy":0.0017,"dx":0.0017,"nx":28,"ny":28,"refTime":"2025-05-01T03:00:00:Z","depth":0,"parameterNumber":2,"parameterNumberName":"U-component_of_WINDS"},"data":[0,0,0,0,0,0,0,0,0,0,0,0,0,0,0,0,0,0,0,0,0,0,0,0,0,0,0,0,0,0,0,0,0,0,0,0,0,0,0,0,0,0,0,0,0,0,0,0,0,0,0,0,0,0,0,0,0,0,-0.1473,-0.1472,0,-0.1425,-0.1425,-0.1424,-0.1406,-0.1406,-0.1406,-0.1406,-0.1358,-0.1357,-0.1355,0,0,0,0,0,0,0,0,0,0,0,0,0,-0.1548,-0.1547,-0.1473,-0.1472,-0.1471,-0.1426,-0.1425,-0.1424,-0.1406,-0.1406,-0.1406,-0.1406,-0.1358,-0.1357,-0.1355,0,0,0,0,0,0,0,0,0,0,0,0,0,-0.151,-0.1547,-0.1473,-0.1457,-0.1455,-0.1426,-0.1425,-0.1424,-0.1406,-0.1406,-0.1406,-0.1406,-0.1359,-0.1357,-0.1355,-0.1338,0,0,-0.1348,-0.1348,0,0,0,0,0,0,0,0,-0.1512,-0.1507,-0.146,-0.1458,-0.1455,-0.1422,-0.1434,-0.1395,-0.1406,-0.1424,-0.1406,-0.1406,-0.1379,-0.1375,-0.1366,-0.1336,-0.1334,-0.1348,-0.1347,-0.1346,-0.1346,0,0,0,0,0,0,0,-0.1515,-0.1509,-0.1454,-0.1459,-0.1456,-0.1452,-0.1447,-0.1427,-0.1401,-0.1423,-0.1421,-0.1416,-0.1378,-0.1368,-0.1365,-0.1333,-0.1348,-0.1346,-0.1345,-0.1344,-0.129,-0.129,0,0,0,0,0,0,-0.152,-0.1511,-0.1455,-0.1453,-0.1485,-0.1451,-0.1445,-0.1432,-0.1401,-0.1397,-0.1416,-0.1415,-0.1372,-0.1367,-0.1363,-0.1343,-0.1346,-0.1344,-0.1343,-0.129,-0.129,-0.129,0,0,0,0,0,0,-0.1522,-0.1515,-0.1457,-0.1482,-0.1474,-0.1449,-0.1435,-0.1431,-0.1421,-0.1396,-0.1392,-0.141,-0.1372,-0.1366,-0.1345,-0.1341,-0.1343,-0.1341,-0.129,-0.129,-0.129,-0.1302,0,0,0,0,0,0,-0.1524,-0.1516,-0.1509,-0.1481,-0.1473,-0.144,-0.1435,-0.143,-0.1418,-0.1417,-0.139,-0.1386,-0.1371,-0.1348,-0.1343,-0.1338,-0.134,-0.1291,-0.129,-0.129,-0.1302,-0.1302,-0.1303,0,0,0,0,0,-0.1527,-0.1514,-0.1508,-0.1502,-0.1463,-0.1439,-0.1434,-0.1418,-0.1418,-0.1411,-0.1395,-0.1386,-0.1343,-0.1346,-0.134,-0.1335,-0.1291,-0.129,-0.129,-0.1302,-0.1302,-0.1303,0,0,0,0,0,0,-0.154,-0.151,-0.1503,-0.1481,-0.1463,-0.1436,-0.1427,-0.1419,-0.1401,-0.14,-0.1381,-0.1375,-0.1356,-0.1343,-0.1348,-0.1318,-0.1316,-0.1314,-0.1327,-0.1327,-0.1328,-0.1331,-0.1338,0,0,0,0,0,-0.1541,-0.1524,-0.1498,-0.1481,-0.1472,-0.1451,-0.144,-0.143,-0.141,-0.1402,-0.1385,-0.1367,-0.1349,-0.1337,-0.132,-0.13,-0.1295,-0.1294,-0.1294,-0.1294,-0.1293,-0.1284,-0.1283,-0.1288,-0.1288,-0.1288,0,0,-0.1542,-0.1523,-0.1513,-0.1483,-0.1468,-0.1452,-0.1445,-0.1427,-0.1415,-0.14,-0.1379,-0.1366,-0.1345,-0.1325,-0.1315,-0.1314,-0.1291,-0.1294,-0.1294,-0.1293,-0.1283,-0.1283,-0.1282,-0.1288,-0.1288,-0.1288,0,0,-0.1535,-0.1518,-0.1503,-0.1488,-0.1466,-0.1452,-0.1449,-0.1423,-0.1414,-0.1394,-0.1382,-0.1368,-0.1337,-0.1323,-0.1312,-0.1302,-0.1294,-0.1297,-0.1298,-0.1289,-0.1289,-0.1288,-0.1286,-0.1285,-0.1296,-0.1296,-0.1296,0,-0.1538,-0.1513,-0.1496,-0.148,-0.1468,-0.1454,-0.1439,-0.1425,-0.1398,-0.139,-0.1389,-0.1352,-0.1336,-0.1314,-0.1312,-0.1303,-0.1299,-0.1299,-0.129,-0.1289,-0.1289,-0.1286,-0.1285,-0.1296,-0.1296,-0.1296,-0.1296,0,-0.1519,-0.1502,-0.1492,-0.1467,-0.1454,-0.1438,-0.142,-0.1409,-0.14,-0.1387,-0.1368,-0.1349,-0.1328,-0.1322,-0.1312,-0.1298,-0.1298,-0.1294,-0.1291,-0.1289,-0.1286,-0.1285,-0.1297,-0.1297,-0.1297,-0.1296,0,0,-0.1518,-0.1485,-0.1482,-0.1471,-0.1446,-0.1433,-0.1417,-0.1397,-0.1389,-0.1371,-0.1358,-0.1334,-0.133,-0.1317,-0.1307,-0.1299,-0.1294,-0.1295,-0.1294,-0.1296,-0.1279,-0.1283,-0.1282,-0.1289,-0.1288,-0.1288,-0.1281,0,-0.1508,-0.148,-0.1465,-0.1443,-0.1428,-0.1416,-0.1402,-0.1386,-0.1374,-0.136,-0.1347,-0.133,-0.1326,-0.1319,-0.131,-0.1296,-0.129,-0.1296,-0.1277,-0.1277,-0.1283,-0.128,-0.1284,-0.1278,-0.128,-0.128,-0.1279,0,-0.1492,-0.1476,-0.1452,-0.1431,-0.1424,-0.1412,-0.1393,-0.138,-0.1362,-0.1354,-0.1341,-0.1331,-0.1315,-0.1314,-0.1293,-0.1298,-0.129,-0.1282,-0.1281,-0.1279,-0.1278,-0.1278,-0.1275,-0.1275,-0.1277,-0.1278,-0.1278,0,-0.1495,-0.1467,-0.1449,-0.144,-0.1415,-0.1407,-0.1396,-0.1378,-0.1368,-0.1352,-0.1345,-0.1327,-0.1318,-0.1305,-0.129,-0.1291,-0.1271,-0.1269,-0.1265,-0.1265,-0.1261,-0.1261,-0.1257,-0.1255,-0.1255,-0.1255,-0.1255,0,-0.1486,-0.1472,-0.145,-0.144,-0.1425,-0.1409,-0.1395,-0.1383,-0.1368,-0.1356,-0.1344,-0.1333,-0.1315,-0.1301,-0.129,-0.1276,-0.1271,-0.1265,-0.1262,-0.1266,-0.1267,-0.126,-0.126,-0.1255,-0.1255,-0.1255,-0.1255,0,-0.1486,-0.1471,-0.1451,-0.1429,-0.1424,-0.1414,-0.1395,-0.1385,-0.1373,-0.1358,-0.1353,-0.1335,-0.1319,-0.1304,-0.1282,-0.1275,-0.126,-0.1256,-0.1266,-0.1265,-0.1262,-0.1263,-0.1253,-0.1252,-0.1251,-0.1251,-0.1251,0,-0.1481,-0.147,-0.1448,-0.1439,-0.1428,-0.1413,-0.1403,-0.1388,-0.1378,-0.1358,-0.135,-0.1334,-0.132,-0.1295,-0.128,-0.1264,-0.126,-0.1258,-0.1257,-0.1262,-0.1261,-0.1262,-0.1261,-0.1258,-0.1258,-0.1258,-0.1258,0,-0.1474,-0.1468,-0.1453,-0.1436,-0.1424,-0.141,-0.1395,-0.1389,-0.1371,-0.1361,-0.1344,-0.1334,-0.1313,-0.1297,-0.1279,-0.1269,-0.1261,-0.1259,-0.1257,-0.1261,-0.1267,-0.1265,-0.1268,-0.1259,-0.1259,-0.1259,-0.1259,-0.1259,-0.1472,-0.1463,-0.1446,-0.143,-0.1418,-0.1405,-0.1395,-0.1383,-0.1369,-0.1351,-0.1343,-0.1327,-0.1311,-0.1287,-0.1277,-0.1265,-0.1263,-0.126,-0.126,-0.1259,-0.1261,-0.127,-0.1262,-0.1261,-0.1261,-0.1261,-0.1261,0,-0.1465,-0.1454,-0.144,-0.1421,-0.1409,-0.1403,-0.1388,-0.1378,-0.1364,-0.135,-0.1337,-0.1319,-0.1304,-0.1289,-0.1273,-0.1267,-0.1263,-0.1263,-0.1264,-0.1262,-0.1263,-0.1266,-0.1267,-0.1267,-0.1267,-0.1267,-0.1267,-0.1267,-0.146,-0.1445,-0.1436,-0.1415,-0.1404,-0.1389,-0.1381,-0.1369,-0.1358,-0.1339,-0.1327,-0.1317,-0.1303,-0.1286,-0.1273,-0.1269,-0.1264,-0.1265,-0.126,-0.1262,-0.1261,-0.1261,-0.1264,-0.1264,-0.1264,-0.126,-0.126,-0.126]},{"header":{"parameterUnit":"m.s-1","parameterCategory":1,"la1":30.2991,"la2":30.254,"lo1":-89.0895,"lo2":-89.0444,"dy":0.0017,"dx":0.0017,"nx":28,"ny":28,"refTime":"2025-05-01T03:00:00:Z","depth":0,"parameterNumber":3,"parameterNumberName":"V-component_of_WINDS"},"data":[0,0,0,0,0,0,0,0,0,0,0,0,0,0,0,0,0,0,0,0,0,0,0,0,0,0,0,0,0,0,0,0,0,0,0,0,0,0,0,0,0,0,0,0,0,0,0,0,0,0,0,0,0,0,0,0,0,0,6.3876,6.3876,0,6.3912,6.3912,6.3913,6.3861,6.3859,6.3857,6.3856,6.3889,6.3891,6.3894,0,0,0,0,0,0,0,0,0,0,0,0,0,6.3756,6.3759,6.3876,6.3876,6.3876,6.3912,6.3912,6.3913,6.3861,6.3859,6.3857,6.3855,6.3888,6.3891,6.3894,0,0,0,0,0,0,0,0,0,0,0,0,0,6.3802,6.3759,6.3875,6.3855,6.3854,6.3912,6.3912,6.3913,6.3862,6.3859,6.3856,6.3854,6.3887,6.3891,6.3894,6.3973,0,0,6.3906,6.3908,0,0,0,0,0,0,0,0,6.3799,6.3806,6.3858,6.3857,6.3855,6.3879,6.3882,6.3933,6.3862,6.3859,6.3856,6.3852,6.3887,6.3891,6.3904,6.3974,6.3976,6.3907,6.3909,6.3911,6.3912,0,0,0,0,0,0,0,6.3796,6.3804,6.389,6.3858,6.3857,6.3842,6.3846,6.3892,6.3888,6.3859,6.3855,6.386,6.3886,6.39,6.3904,6.3976,6.3906,6.391,6.3912,6.3914,6.4111,6.4114,0,0,0,0,0,0,6.3796,6.3802,6.3889,6.3891,6.382,6.3847,6.3851,6.3874,6.3887,6.3887,6.3863,6.3858,6.3895,6.39,6.3905,6.3996,6.391,6.3914,6.3916,6.4108,6.4112,6.4115,0,0,0,0,0,0,6.3794,6.3804,6.3887,6.3846,6.3855,6.3852,6.3879,6.3876,6.389,6.389,6.3889,6.3878,6.3893,6.39,6.3956,6.3997,6.3916,6.3919,6.4105,6.4109,6.4113,6.418,0,0,0,0,0,0,6.3791,6.3804,6.3835,6.3847,6.3857,6.3939,6.3881,6.3879,6.3898,6.3892,6.3904,6.3904,6.3891,6.3951,6.396,6.4,6.3922,6.4101,6.4107,6.4112,6.4174,6.4186,6.4197,0,0,0,0,0,6.3786,6.3852,6.3837,6.3847,6.3896,6.3942,6.3948,6.3934,6.3901,6.3931,6.3931,6.3903,6.3991,6.3957,6.3967,6.4009,6.4098,6.4105,6.4111,6.4169,6.4184,6.4196,0,0,0,0,0,0,6.3843,6.3853,6.3836,6.3908,6.3925,6.3933,6.3971,6.395,6.3975,6.3968,6.3948,6.3952,6.4012,6.4016,6.3978,6.4085,6.4039,6.4048,6.408,6.4093,6.4104,6.4101,6.3926,0,0,0,0,0,6.3865,6.3902,6.3908,6.397,6.398,6.3974,6.3993,6.3981,6.3997,6.4003,6.4007,6.4022,6.4053,6.4074,6.4102,6.4175,6.4176,6.4209,6.422,6.4229,6.4237,6.4273,6.4288,6.4136,6.4136,6.4136,0,0,6.3908,6.3918,6.3943,6.3982,6.3993,6.4031,6.398,6.4022,6.4049,6.4009,6.4063,6.4066,6.4082,6.4146,6.4175,6.4152,6.4279,6.4238,6.4245,6.4247,6.4282,6.4296,6.4309,6.4141,6.414,6.4139,0,0,6.4006,6.4018,6.4071,6.4083,6.4102,6.4098,6.411,6.4122,6.4123,6.4177,6.4147,6.4178,6.4233,6.4244,6.4257,6.436,6.4334,6.4369,6.4427,6.4463,6.4475,6.4485,6.452,6.4532,6.4377,6.4377,6.4377,0,6.4057,6.4114,6.41,6.4144,6.4161,6.4128,6.418,6.4192,6.4219,6.423,6.4205,6.4271,6.428,6.4346,6.4371,6.4383,6.4395,6.4367,6.4475,6.4485,6.4494,6.4527,6.454,6.4381,6.4381,6.438,6.438,0,6.4175,6.4215,6.4254,6.4282,6.4304,6.4351,6.4343,6.4366,6.4352,6.435,6.4404,6.4413,6.4442,6.4457,6.4444,6.4521,6.4506,6.4478,6.4431,6.4513,6.4543,6.4556,6.4387,6.4386,6.4384,6.4383,0,0,6.4309,6.4328,6.4342,6.4354,6.4372,6.4401,6.4447,6.4476,6.4496,6.4515,6.4551,6.4598,6.4572,6.4587,6.4574,6.4606,6.4684,6.4574,6.4574,6.4592,6.4768,6.4787,6.4802,6.4668,6.4671,6.4673,6.4766,0,6.4405,6.4485,6.4473,6.4549,6.4584,6.4553,6.4593,6.4607,6.4606,6.4635,6.4633,6.4666,6.463,6.4639,6.4669,6.4668,6.4719,6.4662,6.47,6.4701,6.4695,6.4818,6.4839,6.4926,6.4777,6.4779,6.4781,0,6.4528,6.4552,6.4632,6.4644,6.4658,6.4694,6.4719,6.4748,6.4762,6.4759,6.4776,6.4758,6.4801,6.4755,6.4814,6.4775,6.479,6.4792,6.4795,6.4796,6.4745,6.482,6.4954,6.4966,6.48,6.4798,6.4797,0,6.4615,6.4668,6.4722,6.4733,6.4748,6.4774,6.4781,6.4793,6.4811,6.4833,6.4844,6.4871,6.4885,6.4905,6.4893,6.4861,6.4953,6.4907,6.495,6.495,6.4969,6.4968,6.5105,6.4982,6.4982,6.4982,6.4982,0,6.4722,6.4772,6.4761,6.4795,6.4849,6.4834,6.4887,6.4891,6.4902,6.4934,6.4909,6.4939,6.4923,6.4951,6.4942,6.4991,6.4998,6.4995,6.4992,6.4996,6.4996,6.5004,6.4997,6.4985,6.4985,6.4984,6.4983,0,6.4828,6.4823,6.488,6.489,6.4893,6.4932,6.494,6.497,6.4967,6.5008,6.5017,6.5012,6.5044,6.5035,6.507,6.5064,6.5125,6.5115,6.512,6.5117,6.516,6.5155,6.5305,6.5323,6.5191,6.5192,6.5194,0,6.4896,6.4933,6.4947,6.4967,6.4977,6.501,6.5028,6.5015,6.5035,6.5054,6.5081,6.5112,6.5135,6.5187,6.5186,6.5212,6.5201,6.5252,6.5205,6.5208,6.52,6.5197,6.5199,6.5261,6.5262,6.5264,6.5265,0,6.5016,6.5012,6.504,6.5068,6.5091,6.5111,6.5129,6.5147,6.5135,6.5158,6.5191,6.521,6.5245,6.5275,6.5298,6.5304,6.5282,6.528,6.5291,6.5295,6.5295,6.5293,6.5143,6.5276,6.5275,6.5274,6.5273,6.5273,6.5103,6.5135,6.5149,6.5181,6.5193,6.5211,6.5239,6.5241,6.5268,6.5297,6.5287,6.5325,6.5337,6.5367,6.5375,6.5403,6.5384,6.54,6.5404,6.5408,6.5412,6.5293,6.5408,6.5407,6.5407,6.5407,6.5407,0,6.522,6.5228,6.5258,6.5284,6.5309,6.5288,6.5307,6.5328,6.5362,6.5376,6.5399,6.5437,6.5465,6.5467,6.5493,6.5515,6.5505,6.5522,6.5519,6.552,6.5429,6.5416,6.5529,6.5529,6.5529,6.5529,6.5529,6.5529,6.5284,6.5335,6.5333,6.5389,6.5396,6.5433,6.5445,6.546,6.5472,6.5514,6.5538,6.554,6.5548,6.5575,6.5599,6.5599,6.5609,6.5629,6.5624,6.5539,6.5527,6.5515,6.5502,6.5632,6.5632,6.5712,6.5713,6.5714]}]]